Flag for U.S.A. Weather past 2 weeks in Unalaska, Alaska, U.S.A.

Now
41 °F

Fog.


Feels Like: 35 °F
Forecast: 39 / 42 °F
Wind: 9 mph from North

Location: Dutch Harbor

Current Time: Feb 1, 2015 at 2:16:43 PM

Latest Report: Feb 1, 2015 at 12:56 PM


Visibility: 8 mi

Pressure: 29.98 "Hg

Humidity: 93%

Dew point: 39 °F

Location of UnalaskaLocation

Historic Weather in Unalaska — Graph

°F

Unalaska temperature yesterday

Maximum temperature yesterday: 40 °F (at 10:56 PM)
Minimum temperature yesterday: 35 °F (at 12:56 AM)
Average temperature yesterday: 37 °F

Past Weeks' High & Low Weather Summary

 TemperatureHumidityPressure
High42 °F (Jan 26, 3:56 PM)93% (Jan 25, 8:01 AM)30.35 "Hg (Jan 25, 8:01 AM)
Low27 °F (Jan 18, 8:58 AM)60% (Jan 21, 2:56 AM)29.05 "Hg (Jan 21, 5:56 PM)
Average35 °F76%29.65 "Hg
* Reported Jan 17 12:56 PM — Feb 1 12:56 PM, Unalaska, Weather by CustomWeather, © 2014

Note: Actual official high and low records may vary slightly from our data, if they occured in-between our weather recording intervals... More about our weather records

Advertising

Unalaska weather history for previous 24 hours

 ConditionsComfort  
Time TempWeatherWind HumidityBarometerVisibility
12:56 PM
Feb 1
41 °FFog.9 mph93%29.98 "Hg8 mi
11:56 AM39 °FFog.No wind93%29.98 "Hg6 mi
10:56 AM39 °FLight rain. Fog.No wind93%29.97 "Hg4 mi
10:03 AM37 °FLight rain. Fog.No wind93%29.94 "Hg3 mi
9:56 AM38 °FLight rain. Fog.No wind93%29.96 "Hg4 mi
8:56 AM39 °FLight rain. Fog.3 mph93%29.93 "Hg4 mi
7:56 AM39 °FLight rain. Fog.3 mph89%29.92 "Hg3 mi
6:56 AM38 °FLight rain. Fog.No wind93%29.91 "Hg3 mi
5:56 AM39 °FLight rain. Mostly cloudy.6 mph86%29.90 "Hg9 mi
4:56 AM39 °FLight rain. Overcast.3 mph86%29.90 "Hg9 mi
3:56 AM40 °FLight rain. Mostly cloudy.6 mph83%29.89 "Hg10 mi
2:56 AM40 °FMostly cloudy.12 mph83%29.89 "Hg10 mi
1:56 AM40 °FOvercast.10 mph83%29.88 "Hg10 mi
12:56 AM40 °FMostly cloudy.13 mph80%29.88 "Hg10 mi
11:56 PM
Jan 31
40 °FOvercast.7 mph80%29.88 "Hg10 mi
10:56 PM40 °FOvercast.12 mph77%29.88 "Hg10 mi
9:56 PM39 °FOvercast.13 mph82%29.89 "Hg10 mi
8:56 PM39 °FOvercast.12 mph79%29.90 "Hg10 mi
7:56 PM38 °FPartly cloudy.10 mph83%29.89 "Hg10 mi
6:56 PM38 °FPassing clouds.12 mph83%29.89 "Hg10 mi
5:56 PM39 °FPartly sunny.8 mph76%29.91 "Hg10 mi
4:56 PM39 °FPartly sunny.14 mph76%29.91 "Hg10 mi
3:56 PM39 °FOvercast.15 mph73%29.93 "Hg10 mi
2:56 PM39 °FOvercast.20 mph73%29.94 "Hg10 mi
2:04 PM37 °FOvercast.12 mph75%29.95 "Hg10 mi
Weather by CustomWeather, © 2014

See weather overviewHow to use our weather pages